User: anonymous   Login
Location: G�migny
(47.9646°N, 1.6950°E)
Time: 20:20:21
(UTC+00:00)
Language:

STARLINK-38 - Orbit

View from above orbital plane
View from above orbital plane
View from above satellite
View from above satellite

Ground track
Ground track

The orbit data is extracted from the following two-line orbital elements,

1 44280U 19029AX  19340.25002315 -.00032328  00000-0 -18450-2 0  9994
2 44280  53.0036  11.0102 0001065 130.6064 159.3287 15.12145789 29722
Epoch (UTC): 06 December 2019 06:00:02
Eccentricity: 0.0001065
inclination: 53.0036°
perigee height: 529 km
apogee height: 530 km
right ascension of ascending node: 11.0102°
argument of perigee: 130.6064°
revolutions per day: 15.12145789
mean anomaly at epoch: 159.3287°
orbit number at epoch: 2972

The dashed part of the orbit path shows where the satellite is in the earth's shadow,  

DLR